Location: Lhota
(50.0887°N, 14.0116°E)
Time: 20:33:10
(UTC+00:00)

Cosmos 1697 Rocket - Pass Details

Date: 19 May 2025
Orbit: 830 x 844 km, 71.0° (Epoch: 20 June)

Event Time Altitude Azimuth Distance (km) Brightness Sun altitude
Rises 21:18:08 0° 323° (NW) 3,407 7.5 -16.4°
Reaches altitude 10° 21:20:53 10° 313° (NW) 2,469 6.2 -16.6°
Maximum altitude 21:25:36 28° 256° (WSW) 1,535 4.1 -16.9°
Enters shadow 21:29:19 14° 206° (SSW) 2,157 4.4 -17.1°
